Marshfield, WI

1:25 PM CDT on June 25, 2017 (GMT -0500)
Marshfield Municipal

Weather History for KMFI - October, 2014

Change the Weather History Date:

Thursday, October 30, 2014

  Actual Average Record
Temperature  
Mean Temperature 39 °F -  
Max Temperature 48 °F 52 °F 76 °F (1950)
Min Temperature 32 °F 32 °F 1 °F (1925)
Degree Days  
Heating Degree Days 26    
Moisture  
Dew Point 33 °F    
Average Humidity 78    
Maximum Humidity 92    
Minimum Humidity 63    
Precipitation  
Precipitation 0.00 in - - ()
Sea Level Pressure  
Sea Level Pressure 30.10 in    
Wind  
Wind Speed 6 mph (NW)    
Max Wind Speed 22 mph    
Max Gust Speed 36 mph    
Visibility 10 miles    
Events Rain , Snow    
Averages and records for this station are not official NWS values.
T = Trace of Precipitation, MM = Missing Value Source: NWS Daily Summary

Daily Weather History Graph

Daily Weather History Graph

Search for Another Location

Airport or City:

Trip Planner

Search our weather history database for the weather conditions in past years. The results will help you decide how hot, cold, wet, or windy it might be!

Date:

Astronomy

Oct. 30, 2014 Rise Set
Actual Time 7:35 AM CDT 5:52 PM CDT
Civil Twilight 7:05 AM CDT 6:22 PM CDT
Nautical Twilight 6:31 AM CDT 6:56 PM CDT
Astronomical Twilight 5:57 AM CDT 7:30 PM CDT
Moon 1:40 PM CDT (10/30) No Moon Set
Length of Visible Light 11h 17m
Length of Day
10h 16m
Waxing Crescent, 45% of the Moon is Illuminated
Oct 30
Waxing Crescent
Oct 30
First Quarter
Nov 6
Full
Nov 14
Last Quarter
Nov 22
New

Hourly Weather History & Observations

Time (CDT) Temp. Windchill Dew Point Humidity Pressure Visibility Wind Dir Wind Speed Gust Speed Precip Events Conditions
12:54 AM 32.0 °F - 30.0 °F 92% 30.12 in 10.0 mi Calm Calm - N/A   Clear
1:54 AM 33.1 °F - 28.9 °F 85% 30.12 in 10.0 mi Calm Calm - N/A   Clear
2:54 AM 33.1 °F - 30.9 °F 92% 30.12 in 10.0 mi Calm Calm - N/A   Clear
3:54 AM 33.1 °F 26.9 °F 30.9 °F 92% 30.10 in 10.0 mi SSW 6.9 mph - N/A   Clear
4:54 AM 34.0 °F - 30.9 °F 89% 30.09 in 10.0 mi Calm Calm - N/A   Partly Cloudy
5:54 AM 32.0 °F - 30.0 °F 92% 30.10 in 10.0 mi Calm Calm - N/A   Overcast
6:54 AM 33.1 °F - 30.9 °F 92% 30.10 in 10.0 mi Calm Calm - N/A   Overcast
7:54 AM 33.1 °F 30.0 °F 30.9 °F 92% 30.10 in 10.0 mi SW 3.5 mph - N/A   Overcast
8:54 AM 35.1 °F - 32.0 °F 89% 30.11 in 10.0 mi Calm Calm - N/A   Overcast
9:54 AM 39.9 °F 37.8 °F 35.1 °F 83% 30.10 in 10.0 mi SW 3.5 mph - N/A   Overcast
10:54 AM 43.0 °F 39.5 °F 36.0 °F 76% 30.10 in 10.0 mi WNW 5.8 mph - N/A   Overcast
11:54 AM 46.0 °F 44.8 °F 36.0 °F 68% 30.10 in 10.0 mi Variable 3.5 mph - N/A   Overcast
12:54 PM 46.9 °F - 35.1 °F 63% 30.09 in 10.0 mi WNW 8.1 mph - 0.00 in   Overcast
1:54 PM 46.9 °F - 36.0 °F 66% 30.07 in 10.0 mi NW 8.1 mph - N/A   Overcast
2:54 PM 46.9 °F - 35.1 °F 63% 30.07 in 10.0 mi NW 8.1 mph - N/A   Overcast
3:54 PM 46.0 °F 40.6 °F 34.0 °F 63% 30.07 in 10.0 mi NW 11.5 mph - N/A   Overcast
4:54 PM 46.0 °F 42.5 °F 34.0 °F 63% 30.08 in 10.0 mi WNW 6.9 mph - N/A   Overcast
5:54 PM 44.1 °F 40.1 °F 34.0 °F 68% 30.08 in 10.0 mi NW 6.9 mph - N/A   Overcast
6:39 PM 44.1 °F 38.1 °F 35.1 °F 71% 30.06 in 10.0 mi NW 11.5 mph - N/A   Overcast
6:54 PM 44.1 °F 36.2 °F 35.1 °F 71% 30.10 in 10.0 mi NW 18.4 mph 24.2 mph N/A   Overcast
7:49 PM 42.8 °F 35.4 °F 33.8 °F 70% 30.08 in 10.0 mi NNW 15.0 mph - N/A   Overcast
7:54 PM 42.1 °F 35.2 °F 33.1 °F 70% 30.11 in 10.0 mi NNW 12.7 mph - N/A   Overcast
8:54 PM 41.0 °F 32.5 °F 32.0 °F 70% 30.11 in 10.0 mi NW 17.3 mph - N/A   Overcast
9:54 PM 37.9 °F 27.3 °F 33.1 °F 83% 30.13 in 4.0 mi NNW 21.9 mph 32.2 mph 0.00 in Rain Light Rain
10:03 PM 37.0 °F 28.1 °F 33.1 °F 86% 30.09 in 10.0 mi NNW 15.0 mph - 0.00 in   Overcast
10:35 PM 37.9 °F 27.9 °F 33.1 °F 83% 30.10 in 9.0 mi NW 19.6 mph 25.3 mph 0.00 in Rain Light Rain
10:54 PM 35.1 °F 23.8 °F 30.0 °F 82% 30.15 in 9.0 mi NNW 20.7 mph 35.7 mph 0.00 in Snow Light Snow
11:49 PM 33.8 °F 21.9 °F 28.4 °F 81% 30.12 in 9.0 mi NW 21.9 mph 27.6 mph 0.00 in   Overcast
11:54 PM 34.0 °F 22.7 °F 28.0 °F 79% 30.16 in 10.0 mi NNW 19.6 mph 27.6 mph 0.00 in   Overcast